Home > Weather > Guatemala > Past weeks

Flag for Guatemala Weather for the Past 2 Weeks in Guatemala, Guatemala

Now
77 °F

Partly sunny.


Feels Like: 79 °F
Forecast: 67 / 80 °F
Wind: 14 mph from Southwest

Location: Guatemala Aeropuertola Aurora

Current Time: Apr 30, 2016 at 11:30:39 AM

Latest Report: Apr 30, 2016 at 11:00 AM


Visibility: N/A

Pressure: 30.21 "Hg (25.34 "Hg at 1533m altitude)

Humidity: 57%

Dew Point: 61 °F

Location of GuatemalaLocation

Historic Weather in Guatemala — Graph

°F

Guatemala Temperature Yesterday

Maximum temperature yesterday: 81 °F (at 1:00 PM)
Minimum temperature yesterday: 64 °F (at 5:00 AM)
Average temperature yesterday: 71 °F

High & Low Weather Summary for the Past Weeks

 TemperatureHumidityPressure
High86 °F (Apr 21, 2:00 PM)100% (Apr 27, 2:00 AM)30.33 "Hg (Apr 27, 2:00 AM)
Low61 °F (Apr 21, 5:00 AM)31% (Apr 21, 2:00 PM)30.12 "Hg (Apr 16, 3:00 PM)
Average71 °F75%30.23 "Hg
* Reported Apr 15 10:00 AM — Apr 30 10:00 AM, Guatemala, Weather by CustomWeather, © 2016

Note: Actual official high and low records may vary slightly from our data, if they occured in-between our weather recording intervals... More about our weather records

Advertising

Guatemala Weather History for the Previous 24 Hours

Scroll right to see more
 ConditionsComfort  
Time TempWeatherWind HumidityBarometerVisibility
10:00 AM
Sat, Apr 30
73 °FPartly sunny.12 mph69%30.21 "HgN/A
9:00 AM70 °FPartly sunny.9 mph78%30.21 "Hg4 mi
8:00 AM68 °FRain. Partly sunny.9 mph83%30.21 "Hg2 mi
7:00 AM66 °FFog.7 mph88%30.18 "Hg2 mi
6:00 AM66 °FFog.7 mph88%30.15 "Hg2 mi
5:00 AM64 °FFog.9 mph94%N/A3 mi
4:00 AM64 °FPassing clouds.9 mph88%30.15 "Hg4 mi
3:00 AM64 °FClear.5 mph88%30.15 "Hg4 mi
2:00 AM66 °FClear.7 mph88%30.15 "Hg4 mi
1:00 AM68 °FFog.5 mph83%30.18 "Hg3 mi
12:00 AM68 °FClear.5 mph83%30.21 "Hg4 mi
11:00 PM
Fri, Apr 29
68 °FPassing clouds.7 mph88%30.21 "Hg5 mi
10:00 PM68 °FPassing clouds.7 mph83%30.24 "Hg4 mi
9:00 PM68 °FPassing clouds.12 mph83%30.21 "Hg4 mi
8:00 PM68 °FPassing clouds.14 mph83%30.18 "Hg4 mi
7:00 PM70 °FPassing clouds.14 mph78%30.18 "Hg5 mi
6:00 PM70 °FBroken clouds.14 mph83%30.18 "Hg4 mi
5:00 PM72 °FOvercast.14 mph78%30.15 "Hg5 mi
4:00 PM75 °FScattered clouds.18 mph69%30.15 "HgN/A
3:00 PM79 °FPassing clouds.16 mph58%30.15 "HgN/A
2:00 PM81 °FScattered clouds.18 mph58%30.18 "HgN/A
1:00 PM81 °FScattered clouds.16 mph54%30.21 "HgN/A
12:00 PM79 °FPartly sunny.16 mph58%30.21 "HgN/A
11:00 AM79 °FScattered clouds.12 mph58%30.21 "HgN/A
Weather by CustomWeather, © 2016

See weather overviewHow to use our weather pages